Weather History for Resolute, NU

Change the Weather History Date:

Tuesday, May 8, 2012

  Actual Average Record
Temperature  
Mean Temperature 3 °F -  
Max Temperature 8 °F 11 °F 32 °F (2004)
Min Temperature -2 °F 3 °F -14 °F (2013)
Degree Days  
Heating Degree Days 62    
Moisture  
Dew Point -4 °F    
Average Humidity 68    
Maximum Humidity 73    
Minimum Humidity 55    
Precipitation  
Precipitation 0.00 in - - ()
Sea Level Pressure  
Sea Level Pressure 30.33 in    
Wind  
Wind Speed 6 mph ()    
Max Wind Speed 20 mph    
Max Gust Speed -    
Visibility 15.0 miles    
Events      
Averages and records for this station are not official NWS values.
T = Trace of Precipitation, MM = Missing Value Source: Averaged Metar Reports

Daily Weather History Graph

Daily Weather History Graph

Search for Another Location

Airport:

Trip Planner

Search our weather history database for the weather conditions in past years. The results will help you decide how hot, cold, wet, or windy it might be!

Date:

Astronomy

Dec. 31, 1969 Rise Set
Actual Time Sun does not rise Sun does not rise
Civil Twilight Sun does not rise Sun does not rise
Nautical Twilight Sun does not rise Sun does not rise
Astronomical Twilight Sun does not rise Sun does not rise
Moon No Moon Rise No Moon Set
Length of Visible Light 24h 00m
Length of Day
24h 00m
Waning Gibbous, 90% of the Moon is Illuminated
May 8
Waning Gibbous
May 12
Last Quarter
May 20
New
May 28
First Quarter
Jun 4
Full

Hourly Weather History & Observations

Time (CDT) Temp. Windchill Dew Point Humidity Pressure Visibility Wind Dir Wind Speed Gust Speed Precip Events Conditions
12:00 AM -2.2 °F -12.5 °F -9.4 °F 71% 30.40 in 15.0 mi SSE 4.6 mph - N/A   Partly Cloudy
1:00 AM -0.4 °F -12.0 °F -7.6 °F 72% 30.40 in 15.0 mi ENE 5.8 mph - N/A   Partly Cloudy
2:00 AM -2.2 °F -12.5 °F -9.4 °F 71% 30.39 in 15.0 mi NW 4.6 mph - N/A   Clear
3:00 AM -0.4 °F -10.4 °F -7.6 °F 72% 30.39 in 15.0 mi East 4.6 mph - N/A   Clear
4:00 AM -0.4 °F -19.2 °F -9.4 °F 66% 30.39 in 15.0 mi NE 13.8 mph - N/A   Clear
5:00 AM -0.4 °F -8.3 °F -9.4 °F 66% 30.38 in 15.0 mi West 3.5 mph - N/A   Clear
6:00 AM -4.0 °F -27.0 °F -11.2 °F 71% 30.38 in 15.0 mi NE 19.6 mph - N/A   Clear
7:00 AM 1 °F - -7 °F 55% 30.37 in 15 mi ENE 15.0 mph - -   Clear
7:00 AM 1.4 °F -17.6 °F -7.6 °F 66% 30.37 in 15.0 mi ENE 15.0 mph - N/A   Partly Cloudy
8:00 AM 1.4 °F -6.2 °F -7.6 °F 66% 30.37 in 15.0 mi South 3.5 mph - N/A   Partly Cloudy
9:00 AM 1.4 °F -6.2 °F -7.6 °F 66% 30.36 in 15.0 mi ESE 3.5 mph - N/A   Partly Cloudy
10:00 AM 3.2 °F -4.2 °F -5.8 °F 66% 30.35 in 15.0 mi East 3.5 mph - N/A   Partly Cloudy
11:00 AM 5.0 °F -5.6 °F -4.0 °F 66% 30.34 in 15.0 mi NNE 5.8 mph - N/A   Partly Cloudy
12:00 PM 5.0 °F -5.6 °F -4.0 °F 66% 30.33 in 15.0 mi ENE 5.8 mph - N/A   Partly Cloudy
1:00 PM 5 °F - -3 °F 58% 30.33 in 15 mi ENE 4.6 mph - -   Clear
1:00 PM 5.0 °F -4.1 °F -2.2 °F 72% 30.33 in 15.0 mi ENE 4.6 mph - N/A   Scattered Clouds
2:00 PM 6.8 °F -2.0 °F -2.2 °F 67% 30.32 in 15.0 mi ENE 4.6 mph - N/A   Partly Cloudy
3:00 PM 6.8 °F -2.0 °F -0.4 °F 72% 30.31 in 15.0 mi NNE 4.6 mph - N/A   Partly Cloudy
4:00 PM 6.8 °F -11.8 °F -0.4 °F 72% 30.30 in 15.0 mi NE 17.3 mph - N/A   Partly Cloudy
5:00 PM 8.6 °F -3.7 °F 1.4 °F 73% 30.30 in 15.0 mi North 8.1 mph - N/A   Partly Cloudy
6:00 PM 6.8 °F -6.9 °F -0.4 °F 72% 30.29 in 15.0 mi NNW 9.2 mph - N/A   Partly Cloudy
7:00 PM 7 °F - -0 °F 61% 30.28 in 15 mi NNE 5.8 mph - -   Clear
7:00 PM 6.8 °F -3.5 °F -0.4 °F 72% 30.28 in 15.0 mi NNE 5.8 mph - N/A   Partly Cloudy
8:00 PM 8.6 °F -1.3 °F -0.4 °F 67% 30.27 in 15.0 mi NE 5.8 mph - N/A   Clear
9:00 PM 6.8 °F -0.1 °F -0.4 °F 72% 30.25 in 15.0 mi West 3.5 mph - N/A   Clear
10:00 PM 8.6 °F - -0.4 °F 67% 30.24 in 15.0 mi Calm Calm - N/A   Clear
11:00 PM 8.6 °F 0.1 °F -0.4 °F 67% 30.23 in 15.0 mi NNW 4.6 mph - N/A   Clear